Location: Unspecified
(0.0000°N, 0.0000°E)
Time: 08:32:30
(UTC+00:00)

BlueWalker 3 - Visible Passes

Search period start: 10 December 2025 00:00
Search period end: 20 December 2025 00:00
Orbit: 455 x 462 km, 53.2° (Epoch: 09 December)

Date Brightness Start Highest point End Pass type
(mag) Time Alt. Az. Time Alt. Az. Time Alt. Az.
11 Dec 3.1 19:43:19 10° NW 19:46:14 38° W 19:46:14 38° W visible
12 Dec 2.1 19:08:18 10° NW 19:11:53 65° SW 19:15:27 10° SSE visible
13 Dec 1.6 18:33:24 10° NNW 18:37:00 79° ENE 18:40:36 10° SE visible
16 Dec 4.3 05:06:46 10° S 05:09:48 25° SE 05:12:48 10° ENE visible
16 Dec 5.2 18:27:41 10° W 18:29:37 14° SW 18:31:32 10° SSW visible
17 Dec 4.9 04:32:25 10° SSE 04:34:52 17° SE 04:37:18 10° E visible
18 Dec 5.2 03:58:33 10° SSE 03:59:54 12° SE 04:01:15 10° ESE visible
19 Dec 2.2 04:58:57 10° SW 05:02:16 36° WNW 05:05:35 10° NNE visible
